| time (UTC) | temp C | wind direction | speed KPH | gust KPH | rain 1hr cm | rain 24hr cm | rain mn cm | humidity % | barometer mb |
| 20260503004558 | 17 | 0 | 1.6 | 11.3 | 0.00 | 0.08 | 0.03 | 19 | 1017.5 |
| 20260503003057 | 18 | 17 | 1.6 | 9.7 | 0.00 | 0.08 | 0.03 | 16 | 1017.5 |
| 20260503001558 | 18 | 0 | 0.0 | 3.2 | 0.00 | 0.08 | 0.03 | 17 | 1017.5 |
| 20260503000105 | 18 | 312 | 1.6 | 14.5 | 0.00 | 0.08 | 0.03 | 21 | 1017.5 |
| 20260502234603 | 18 | 344 | 3.2 | 12.9 | 0.00 | 0.08 | 0.03 | 21 | 1017.5 |
| 20260502233058 | 18 | 360 | 1.6 | 12.9 | 0.00 | 0.08 | 0.03 | 22 | 1017.7 |
| 20260502231559 | 18 | 5 | 4.8 | 12.9 | 0.00 | 0.08 | 0.03 | 20 | 1017.7 |
| 20260502230058 | 18 | 350 | 1.6 | 9.7 | 0.00 | 0.08 | 0.03 | 21 | 1017.9 |
| 20260502224558 | 19 | 336 | 0.0 | 6.4 | 0.00 | 0.08 | 0.03 | 19 | 1018.1 |
| 20260502223056 | 20 | 336 | 1.6 | 6.4 | 0.00 | 0.08 | 0.03 | 19 | 1018.3 |
| 20260502221622 | 18 | 0 | 1.6 | 11.3 | 0.00 | 0.08 | 0.03 | 19 | 1018.4 |
| 20260502220108 | 19 | 340 | 3.2 | 9.7 | 0.00 | 0.08 | 0.03 | 22 | 1018.7 |
| 20260502214603 | 18 | 338 | 3.2 | 12.9 | 0.00 | 0.08 | 0.03 | 23 | 1018.9 |
| 20260502213100 | 18 | 271 | 4.8 | 12.9 | 0.00 | 0.08 | 0.03 | 24 | 1019.2 |
| 20260502211600 | 18 | 324 | 1.6 | 9.7 | 0.00 | 0.08 | 0.03 | 22 | 1019.4 |
| 20260502210129 | 18 | 342 | 1.6 | 16.1 | 0.00 | 0.08 | 0.03 | 23 | 1019.5 |
| 20260502204558 | 18 | 0 | 3.2 | 14.5 | 0.00 | 0.08 | 0.03 | 25 | 1019.6 |
| 20260502203059 | 18 | 339 | 1.6 | 12.9 | 0.00 | 0.08 | 0.03 | 24 | 1019.7 |
| 20260502201559 | 19 | 13 | 4.8 | 14.5 | 0.00 | 0.08 | 0.03 | 19 | 1019.9 |
| 20260502200126 | 19 | 360 | 3.2 | 9.7 | 0.00 | 0.08 | 0.03 | 22 | 1020.0 |
| 20260502194603 | 18 | 324 | 3.2 | 12.9 | 0.00 | 0.08 | 0.03 | 25 | 1020.2 |
| 20260502193100 | 17 | 355 | 1.6 | 12.9 | 0.00 | 0.08 | 0.03 | 29 | 1020.3 |
| 20260502191604 | 17 | 355 | 4.8 | 12.9 | 0.00 | 0.08 | 0.03 | 21 | 1020.5 |
| 20260502184602 | 17 | 346 | 3.2 | 16.1 | 0.00 | 0.08 | 0.03 | 23 | 1020.6 |
| 20260502183101 | 17 | 337 | 4.8 | 17.7 | 0.00 | 0.08 | 0.03 | 22 | 1020.6 |
| 20260502181604 | 17 | 348 | 3.2 | 14.5 | 0.00 | 0.08 | 0.03 | 30 | 1020.8 |
| 20260502170107 | 15 | 333 | 1.6 | 6.4 | 0.00 | 0.08 | 0.03 | 38 | 1021.2 |
| 20260502163059 | 12 | 0 | 0.0 | 4.8 | 0.00 | 0.08 | 0.03 | 39 | 1021.5 |
| 20260502161606 | 11 | 0 | 0.0 | 4.8 | 0.00 | 0.08 | 0.03 | 43 | 1021.7 |
| 20260502151613 | 7 | 219 | 0.0 | 4.8 | 0.00 | 0.08 | 0.03 | 52 | 1022.3 |
| 20260502130106 | 0 | 0 | 0.0 | 4.8 | 0.00 | 0.08 | 0.03 | 67 | 1022.5 |
| 20260502123059 | 0 | 229 | 0.0 | 6.4 | 0.00 | 0.08 | 0.03 | 67 | 1022.5 |
| 20260502121558 | 0 | 0 | 0.0 | 4.8 | 0.00 | 0.08 | 0.03 | 66 | 1022.5 |
| 20260502114600 | 1 | 0 | 1.6 | 11.3 | 0.00 | 0.08 | 0.03 | 65 | 1022.5 |
| 20260502113059 | 1 | 280 | 1.6 | 8.0 | 0.00 | 0.08 | 0.03 | 66 | 1022.5 |
| 20260502111601 | 0 | 226 | 1.6 | 6.4 | 0.00 | 0.08 | 0.03 | 68 | 1022.6 |
| 20260502110103 | 0 | 0 | 0.0 | 0.0 | 0.00 | 0.08 | 0.03 | 68 | 1022.6 |
| 20260502104601 | 1 | 0 | 0.0 | 4.8 | 0.00 | 0.08 | 0.03 | 66 | 1022.7 |
| 20260502103107 | 1 | 275 | 0.0 | 6.4 | 0.00 | 0.08 | 0.03 | 66 | 1022.7 |
| 20260502101618 | 1 | 251 | 1.6 | 8.0 | 0.00 | 0.08 | 0.03 | 65 | 1022.6 |
| 20260502100105 | 1 | 0 | 0.0 | 4.8 | 0.00 | 0.08 | 0.03 | 65 | 1022.6 |
| 20260502090116 | 2 | 211 | 3.2 | 11.3 | 0.00 | 0.08 | 0.03 | 63 | 1022.7 |
| 20260502080109 | 2 | 0 | 0.0 | 4.8 | 0.00 | 0.08 | 0.03 | 65 | 1022.9 |
| 20260502070113 | 2 | 0 | 0.0 | 4.8 | 0.03 | 0.08 | 0.03 | 68 | 1022.7 |
| 20260502064623 | 2 | 0 | 0.0 | 4.8 | 0.08 | 0.08 | 0.03 | 68 | 1022.6 |
| 20260502063059 | 2 | 0 | 0.0 | 0.0 | 0.05 | 0.05 | 0.00 | 71 | 1022.5 |
| 20260502061601 | 2 | 0 | 0.0 | 3.2 | 0.05 | 0.05 | 0.00 | 69 | 1022.4 |
| 20260502060100 | 3 | 0 | 0.0 | 0.0 | 0.05 | 0.05 | 0.00 | 68 | 1022.4 |
| 20260502054612 | 3 | 0 | 0.0 | 0.0 | 0.00 | 0.00 | 0.00 | 59 | 1022.4 |
| 20260502053058 | 3 | 0 | 0.0 | 0.0 | 0.00 | 0.00 | 0.00 | 58 | 1022.3 |
| 20260502051601 | 3 | 0 | 0.0 | 1.6 | 0.00 | 0.00 | 0.00 | 58 | 1022.3 |
| 20260502050057 | 4 | 0 | 0.0 | 3.2 | 0.00 | 0.00 | 0.00 | 56 | 1022.3 |
| 20260502044600 | 5 | 0 | 0.0 | 1.6 | 0.00 | 0.00 | 0.00 | 55 | 1022.1 |
| 20260502043100 | 5 | 0 | 0.0 | 0.0 | 0.00 | 0.00 | 0.00 | 52 | 1022.1 |
| 20260502041607 | 6 | 0 | 0.0 | 0.0 | 0.00 | 0.00 | 0.00 | 50 | 1021.9 |
| 20260502040058 | 7 | 0 | 0.0 | 0.0 | 0.00 | 0.00 | 0.00 | 47 | 1021.6 |
| 20260502034557 | 7 | 0 | 0.0 | 1.6 | 0.00 | 0.00 | 0.00 | 46 | 1021.5 |
| 20260502033117 | 8 | 0 | 0.0 | 3.2 | 0.00 | 0.00 | 0.00 | 42 | 1021.2 |
| 20260502031602 | 10 | 0 | 0.0 | 0.0 | 0.00 | 0.00 | 0.00 | 40 | 1020.8 |
| 20260502030101 | 10 | 360 | 0.0 | 0.0 | 0.00 | 0.00 | 0.00 | 38 | 1020.5 |
| 20260502024609 | 11 | 0 | 0.0 | 0.0 | 0.00 | 0.00 | 0.00 | 36 | 1020.3 |
| 20260502023135 | 12 | 0 | 0.0 | 0.0 | 0.00 | 0.00 | 0.00 | 34 | 1020.2 |
| 20260502021603 | 13 | 0 | 0.0 | 0.0 | 0.00 | 0.00 | 0.00 | 31 | 1020.1 |
| 20260502020101 | 15 | 0 | 0.0 | 0.0 | 0.00 | 0.00 | 0.00 | 30 | 1019.9 |
| 20260502014558 | 16 | 0 | 0.0 | 1.6 | 0.00 | 0.00 | 0.00 | 27 | 1019.8 |
| 20260502013103 | 17 | 0 | 0.0 | 3.2 | 0.00 | 0.00 | 0.00 | 25 | 1019.8 |
| 20260502011603 | 17 | 0 | 0.0 | 4.8 | 0.00 | 0.00 | 0.00 | 25 | 1019.9 |
| 20260502010058 | 18 | 338 | 0.0 | 3.2 | 0.00 | 0.00 | 0.00 | 26 | 1019.8 |